Weather Roundup
Issued by NWS

Home | Current Version | Previous Version | Text Only | Print | Product List | Glossary On
Versions: 1 2 3 4 5 6 7 8 9 10 11 12 13 14 15 16 17 18 19 20 21 22 23 24 25 26 27 28 29 30 31 32 33 34 35 36 37 38 39 40 41 42 43 44 45 46 47 48 49 50
000
NZUS93 KARX 221510
HRRWXR

CURRENT HOURLY OBSERVATIONS ACROSS
MUCH OF THE UPPER MISSISSIPPI VALLEY
NATIONAL WEATHER SERVICE LA CROSSE WI
1000 AM CDT MON SEP 22 2014


...SOUTHEAST MINNESOTA...


CITY           SKY/WX    TMP DP  RH WIND       PRES   REMARKS
ROCHESTER      SUNNY     57  52  83 W9        30.30R
ROCHESTER/MAYO FAIR      56  50  82 W9        30.29S
WINONA         SUNNY     54  50  87 CALM      30.28S
AUSTIN         SUNNY     55  55 100 W10       30.30R
ALBERT LEA     SUNNY     57  52  82 W6        30.30S
DODGE CENTER   SUNNY     55  54  94 W9        30.29S
PRESTON        SUNNY     59  53  82 SW8       30.30R
OWATONNA       SUNNY     55  54  94 W5        30.29S
FARIBAULT      SUNNY     61  48  63 W7        30.29S
$$

...ELSEWHERE IN MINNESOTA...


CITY           SKY/WX    TMP DP  RH WIND       PRES   REMARKS
MINNEAPOLIS    SUNNY     58  49  72 W6        30.28S
INTNL FALLS    SUNNY     55  51  86 W7        30.13S
DULUTH         SUNNY     59  47  64 W9        30.20R
RED WING       MOSUNNY   55  54  94 W3        30.27R
REDWOOD FALLS  SUNNY     59  51  75 SW8       30.27S
MANKATO        SUNNY     55  48  76 W6        30.29S
WORTHINGTON    SUNNY     61  48  63 SW8       30.30S
FAIRMONT       SUNNY     61  48  63 SW7       30.30S
$$

...SOUTHWEST WISCONSIN...


CITY           SKY/WX    TMP DP  RH WIND       PRES   REMARKS
LA CROSSE      SUNNY     54  49  83 S8        30.28R
PRAIRIE DU CHI SUNNY     54  52  93 CALM      30.31R
BOSCOBEL       SUNNY     54  47  77 SW6       30.31R
LONE ROCK      SUNNY     53  47  79 W3        30.30R
PLATTEVILLE    SUNNY     56  48  75 SW6       30.32R
FORT MC COY    SUNNY     54  47  75 SW5       30.29R
CAMP DOUGLAS   SUNNY     59  52  77 W5        30.27R
VIROQUA        FAIR      57  50  78 SW7       30.29R
WIS DELLS      SUNNY     57  43  60 SW6       30.28R
$$

...ELSEWHERE IN WISCONSIN...


CITY           SKY/WX    TMP DP  RH WIND       PRES   REMARKS
MILWAUKEE      SUNNY     55  41  59 W6        30.28R
MADISON        SUNNY     57  43  59 SW6       30.28R
GREEN BAY      SUNNY     55  47  74 W7        30.24R
EAU CLAIRE     SUNNY     57  50  77 SW7       30.25S
BLACK RVR FLS  FAIR      51  51 100 CALM      30.27R
MEDFORD        SUNNY     55  47  75 SW6       30.24S
WAUSAU         SUNNY     56  45  66 NW6       30.23R
WIS RAPIDS     SUNNY     56  48  74 SW6       30.27R
MARSHFIELD     SUNNY     57  49  74 W7        30.25R
RICE LAKE      MOSUNNY   53  51  94 SW3       30.26R
$$

...NORTHEAST IOWA...


CITY           SKY/WX    TMP DP  RH WIND       PRES   REMARKS
WATERLOO       SUNNY     57  50  77 VRB3      30.31R
DUBUQUE        SUNNY     55  45  68 SW8       30.32R
DECORAH        SUNNY     55  50  82 VRB3      30.30R
MASON CITY     SUNNY     57  52  83 W7        30.32S
CHARLES CITY   SUNNY     57  52  82 W8        30.32R
OELWEIN        SUNNY     57  50  77 SW7       30.32S
$$

...ELSEWHERE IN IOWA...


CITY           SKY/WX    TMP DP  RH WIND       PRES   REMARKS
DES MOINES     SUNNY     62  51  67 CALM      30.33R
IOWA CITY      SUNNY     56  47  71 S3        30.34R
FORT DODGE     SUNNY     57  52  82 CALM      30.32S
MARSHALLTOWN   SUNNY     58  52  80 S5        30.32S
CEDAR RAPIDS   SUNNY     56  48  74 S5        30.32R
$$

...NORTHERN ILLINOIS...


CITY           SKY/WX    TMP DP  RH WIND       PRES   REMARKS
CHICAGO-OHARE  MOSUNNY   53  41  63 VRB3      30.29R
DUPAGE         SUNNY     57  43  59 VRB3      30.29R
CHICAGO-MIDWAY MOSUNNY   58  46  64 VRB5      30.29R
MOLINE         SUNNY     56  45  66 CALM      30.33R
ROCKFORD       SUNNY     56  44  64 W3        30.33R
STERLING       SUNNY     59  41  51 CALM      30.32S
PEORIA         SUNNY     58  47  66 CALM      30.32R
$$

NOTE: "FAIR" INDICATES FEW OR NO CLOUDS BELOW 12,000 FEET WITH NO
SIGNIFICANT WEATHER AND/OR OBSTRUCTIONS TO VISIBILITY. WIND
SPEEDS ARE IN MILES-PER-HOUR.



USA.gov is the U.S. government's official web portal to all federal, state and local government web resources and services.